カタログに戻る

STARLINK-34401

運用中通信VLEO
NORAD 64757·PAYLOAD·🇺🇸 United States

打ち上げ Jul 8, 2025 から Cape Canaveral Space Force Station

Loading…

次のパス (今後24時間)

TLE

最新Source: CelesTrak SupGP

元期: Sep 15, 2026, 02:48 UTC

1 64757C 25147C   26258.11715278 -.00024778  00000+0 -73230-3 0  2588
2 64757  53.1572  78.9481 0001241  87.8351 121.7109 15.34393543    13

AllMySatでSTARLINK-34401をリアルタイム追跡

Download on the App Store